PGT904 LOWW-LTFJ

Flight info

Callsign PGT904
Flight time 1h 37m
Altitude 35000
Route ADAMA Z648 VEDER DCT ALAMU DCT EPARI DCT TEGRI DCT TIMUR L606 ADORU UM19 IBODU
Aircraft A320/M-SDE3FGHIRWY/LB1

Departure

Time 2026-04-20 18:27
Airport Vienna International Airport (LOWW)

Arrival

Time 2026-04-20 20:05
Airport Istanbul Sabiha Gökçen International Airport (LTFJ)
Time Latitude Longitude Altitude Speed Heading
2026-04-20 18:02 48.11984 16.55592 610 ft 0 kts 101°
2026-04-20 18:16 48.11986 16.55578 622 ft 4 kts 103°
2026-04-20 18:16 48.11994 16.55540 620 ft 4 kts 120°
2026-04-20 18:17 48.12010 16.55514 623 ft 4 kts 170°
2026-04-20 18:17 48.12021 16.55514 619 ft 0 kts 206°
2026-04-20 18:19 48.12006 16.55503 625 ft 7 kts 206°
2026-04-20 18:20 48.11968 16.55476 610 ft 6 kts 205°
2026-04-20 18:20 48.11937 16.55454 623 ft 4 kts 205°
2026-04-20 18:20 48.11908 16.55440 614 ft 6 kts 189°
2026-04-20 18:20 48.11872 16.55431 610 ft 5 kts 189°
2026-04-20 18:21 48.11822 16.55432 616 ft 7 kts 158°
2026-04-20 18:21 48.11783 16.55510 613 ft 13 kts 116°
2026-04-20 18:21 48.11745 16.55630 620 ft 12 kts 115°
2026-04-20 18:21 48.11712 16.55735 620 ft 10 kts 115°
2026-04-20 18:22 48.11681 16.55830 621 ft 12 kts 116°
2026-04-20 18:22 48.11653 16.55914 618 ft 9 kts 116°
2026-04-20 18:22 48.11626 16.55993 618 ft 8 kts 116°
2026-04-20 18:22 48.11604 16.56062 613 ft 10 kts 115°
2026-04-20 18:23 48.11558 16.56206 624 ft 17 kts 115°
2026-04-20 18:23 48.11507 16.56360 619 ft 16 kts 116°
2026-04-20 18:23 48.11459 16.56508 610 ft 15 kts 115°
2026-04-20 18:23 48.11415 16.56643 623 ft 15 kts 116°
2026-04-20 18:24 48.11368 16.56788 623 ft 16 kts 116°
2026-04-20 18:24 48.11317 16.56945 613 ft 17 kts 116°
2026-04-20 18:24 48.11265 16.57104 617 ft 17 kts 116°
2026-04-20 18:24 48.11215 16.57258 612 ft 16 kts 116°
2026-04-20 18:25 48.11165 16.57411 626 ft 16 kts 116°
2026-04-20 18:25 48.11126 16.57516 622 ft 10 kts 131°
2026-04-20 18:25 48.11070 16.57521 618 ft 8 kts 205°
2026-04-20 18:25 48.11057 16.57511 615 ft 1 kts 206°
2026-04-20 18:26 48.11024 16.57486 621 ft 10 kts 206°
2026-04-20 18:26 48.10962 16.57415 614 ft 10 kts 253°
2026-04-20 18:26 48.10985 16.57316 624 ft 13 kts 296°
2026-04-20 18:26 48.11111 16.56931 618 ft 76 kts 296°
2026-04-20 18:27 48.11435 16.55936 621 ft 134 kts 296°
2026-04-20 18:27 48.11908 16.54487 730 ft 167 kts 297°
2026-04-20 18:27 48.12151 16.52841 1452 ft 166 kts 263°
2026-04-20 18:27 48.11616 16.51293 2128 ft 176 kts 224°
2026-04-20 18:28 48.10613 16.50184 2593 ft 191 kts 218°
2026-04-20 18:28 48.09459 16.48984 2882 ft 214 kts 217°
2026-04-20 18:28 48.08118 16.47745 3230 ft 241 kts 203°
2026-04-20 18:28 48.06384 16.47399 3634 ft 266 kts 174°
2026-04-20 18:29 48.04514 16.47779 4369 ft 275 kts 173°
2026-04-20 18:29 48.02604 16.48160 5260 ft 278 kts 174°
2026-04-20 18:29 48.00673 16.48530 6154 ft 281 kts 175°
2026-04-20 18:29 47.98734 16.49002 7009 ft 286 kts 165°
2026-04-20 18:30 47.96951 16.50380 7809 ft 294 kts 142°
2026-04-20 18:30 47.95620 16.52722 8599 ft 301 kts 118°
2026-04-20 18:30 47.95004 16.55703 9375 ft 304 kts 92°
2026-04-20 18:30 47.95083 16.58867 10124 ft 308 kts 83°
2026-04-20 18:31 47.95263 16.62130 10534 ft 327 kts 83°
2026-04-20 18:31 47.95461 16.65635 10759 ft 351 kts 83°
2026-04-20 18:31 47.95668 16.69378 10917 ft 374 kts 83°
2026-04-20 18:31 47.95879 16.73324 11288 ft 387 kts 83°
2026-04-20 18:32 47.96086 16.77353 11937 ft 392 kts 84°
2026-04-20 18:32 47.96288 16.81430 12604 ft 396 kts 84°
2026-04-20 18:32 47.96491 16.85548 13279 ft 400 kts 84°
2026-04-20 18:32 47.96691 16.89707 13912 ft 404 kts 84°
2026-04-20 18:33 47.96893 16.93913 14487 ft 408 kts 84°
2026-04-20 18:33 47.97096 16.98154 15063 ft 412 kts 84°
2026-04-20 18:33 47.97303 17.02433 15628 ft 415 kts 84°
2026-04-20 18:33 47.97512 17.06749 16179 ft 419 kts 84°
2026-04-20 18:34 47.97720 17.11101 16721 ft 422 kts 84°
2026-04-20 18:34 47.97929 17.15494 17258 ft 426 kts 84°
2026-04-20 18:34 47.98135 17.19922 17798 ft 429 kts 84°
2026-04-20 18:34 47.98341 17.24386 18316 ft 433 kts 84°
2026-04-20 18:35 47.98537 17.28885 18752 ft 437 kts 86°
2026-04-20 18:35 47.98444 17.33441 19190 ft 442 kts 95°
2026-04-20 18:35 47.97897 17.37962 19700 ft 444 kts 104°
2026-04-20 18:35 47.96986 17.42330 20141 ft 446 kts 108°
2026-04-20 18:36 47.96002 17.46800 20471 ft 452 kts 108°
2026-04-20 18:36 47.95018 17.51283 20844 ft 457 kts 108°
2026-04-20 18:36 47.94026 17.55808 21242 ft 461 kts 108°
2026-04-20 18:36 47.93025 17.60367 21632 ft 465 kts 108°
2026-04-20 18:37 47.92016 17.64957 22029 ft 468 kts 108°
2026-04-20 18:37 47.90996 17.69583 22405 ft 471 kts 108°
2026-04-20 18:37 47.89967 17.74235 22791 ft 474 kts 108°
2026-04-20 18:37 47.88940 17.78856 23152 ft 478 kts 109°
2026-04-20 18:38 47.87890 17.83566 23517 ft 481 kts 109°
2026-04-20 18:38 47.86827 17.88307 23811 ft 484 kts 109°
2026-04-20 18:38 47.85754 17.93078 24098 ft 488 kts 109°
2026-04-20 18:38 47.84645 17.97870 24367 ft 491 kts 112°
2026-04-20 18:39 47.83257 18.02528 24658 ft 493 kts 116°
2026-04-20 18:39 47.81810 18.07166 24997 ft 495 kts 116°
2026-04-20 18:39 47.80339 18.11807 25290 ft 497 kts 119°
2026-04-20 18:39 47.78464 18.16120 25552 ft 497 kts 128°
2026-04-20 18:40 47.76428 18.20291 25797 ft 500 kts 128°
2026-04-20 18:40 47.74369 18.24483 26041 ft 503 kts 129°
2026-04-20 18:40 47.72292 18.28690 26292 ft 506 kts 129°
2026-04-20 18:40 47.70201 18.32913 26537 ft 509 kts 129°
2026-04-20 18:41 47.68098 18.37164 26781 ft 512 kts 129°
2026-04-20 18:41 47.65986 18.41439 27032 ft 515 kts 129°
2026-04-20 18:41 47.63861 18.45739 27276 ft 518 kts 129°
2026-04-20 18:41 47.61729 18.50046 27604 ft 519 kts 129°
2026-04-20 18:42 47.59592 18.54359 27947 ft 519 kts 129°
2026-04-20 18:42 47.57451 18.58672 28287 ft 520 kts 129°
2026-04-20 18:42 47.55303 18.62985 28611 ft 521 kts 129°
2026-04-20 18:42 47.53143 18.67313 28789 ft 525 kts 129°
2026-04-20 18:43 47.50963 18.71674 28986 ft 529 kts 129°
2026-04-20 18:43 47.48772 18.76052 29275 ft 530 kts 129°
2026-04-20 18:43 47.46578 18.80434 29588 ft 532 kts 129°
2026-04-20 18:43 47.44371 18.84835 29917 ft 533 kts 130°
2026-04-20 18:44 47.42162 18.89230 30203 ft 534 kts 130°
2026-04-20 18:44 47.39947 18.93626 30517 ft 533 kts 130°
2026-04-20 18:44 47.37737 18.98009 30861 ft 532 kts 130°
2026-04-20 18:44 47.35530 19.02383 31239 ft 530 kts 129°
2026-04-20 18:45 47.33334 19.06727 31657 ft 527 kts 129°
2026-04-20 18:45 47.31885 19.09584 31891 ft 526 kts 129°
2026-04-20 18:45 47.29696 19.13889 32244 ft 524 kts 129°
2026-04-20 18:45 47.26780 19.19617 32749 ft 521 kts 129°
2026-04-20 18:46 47.25343 19.22444 33002 ft 520 kts 129°
2026-04-20 18:46 47.23182 19.26697 33357 ft 519 kts 129°
2026-04-20 18:46 47.21024 19.30939 33725 ft 517 kts 129°
2026-04-20 18:46 47.18870 19.35164 34068 ft 515 kts 129°
2026-04-20 18:47 47.16717 19.39371 34369 ft 514 kts 129°
2026-04-20 18:47 47.14570 19.43553 34682 ft 512 kts 129°
2026-04-20 18:47 47.12425 19.47719 34912 ft 511 kts 129°
2026-04-20 18:47 47.10277 19.51883 34977 ft 513 kts 129°
2026-04-20 18:48 47.05963 19.60239 34977 ft 514 kts 129°
2026-04-20 18:48 47.01644 19.68588 34983 ft 513 kts 129°
2026-04-20 18:49 46.97337 19.76896 35002 ft 512 kts 129°
2026-04-20 18:49 46.93031 19.85188 35002 ft 512 kts 129°
2026-04-20 18:50 46.88712 19.93466 34978 ft 512 kts 129°
2026-04-20 18:50 46.84382 20.01743 34973 ft 513 kts 129°
2026-04-20 18:51 46.80067 20.09969 34968 ft 514 kts 129°
2026-04-20 18:51 46.75683 20.18295 34969 ft 514 kts 129°
2026-04-20 18:52 46.71351 20.26494 34965 ft 514 kts 129°
2026-04-20 18:52 46.66982 20.34743 34964 ft 514 kts 129°
2026-04-20 18:53 46.62616 20.42973 34969 ft 514 kts 129°
2026-04-20 18:53 46.58244 20.51199 34969 ft 514 kts 129°
2026-04-20 18:54 46.53859 20.59409 34942 ft 515 kts 130°
2026-04-20 18:54 46.49452 20.67616 34948 ft 516 kts 130°
2026-04-20 18:55 46.45029 20.75833 34946 ft 517 kts 130°
2026-04-20 18:55 46.40603 20.84050 34949 ft 517 kts 130°
2026-04-20 18:56 46.36168 20.92266 34961 ft 517 kts 130°
2026-04-20 18:56 46.31733 21.00448 34970 ft 516 kts 130°
2026-04-20 18:57 46.27278 21.08594 34974 ft 515 kts 132°
2026-04-20 18:57 46.22170 21.15760 34941 ft 511 kts 141°
2026-04-20 18:58 46.16859 21.22615 34958 ft 513 kts 141°
2026-04-20 18:58 46.11536 21.29484 34958 ft 514 kts 141°
2026-04-20 18:59 46.06234 21.36299 34956 ft 514 kts 142°
2026-04-20 18:59 46.00886 21.43144 34955 ft 515 kts 142°
2026-04-20 19:00 45.95538 21.49988 34957 ft 514 kts 142°
2026-04-20 19:00 45.90185 21.56812 34939 ft 515 kts 142°
2026-04-20 19:01 45.84813 21.63627 34946 ft 516 kts 142°
2026-04-20 19:01 45.79435 21.70443 34950 ft 516 kts 142°
2026-04-20 19:02 45.74054 21.77245 34971 ft 516 kts 142°
2026-04-20 19:02 45.68677 21.84038 34979 ft 515 kts 142°
2026-04-20 19:03 45.63301 21.90811 34953 ft 516 kts 142°
2026-04-20 19:03 45.57899 21.97578 34954 ft 517 kts 142°
2026-04-20 19:04 45.52489 22.04330 34982 ft 516 kts 142°
2026-04-20 19:04 45.47085 22.11068 34992 ft 516 kts 142°
2026-04-20 19:05 45.41688 22.17794 34997 ft 515 kts 142°
2026-04-20 19:05 45.36285 22.24497 34961 ft 515 kts 142°
2026-04-20 19:06 45.30878 22.31175 34981 ft 514 kts 142°
2026-04-20 19:06 45.25484 22.37844 34990 ft 514 kts 142°
2026-04-20 19:07 45.20097 22.44486 34983 ft 513 kts 142°
2026-04-20 19:07 45.14734 22.51061 34984 ft 513 kts 143°
2026-04-20 19:08 45.06616 22.60981 34933 ft 515 kts 143°
2026-04-20 19:09 45.01198 22.67605 34936 ft 515 kts 143°
2026-04-20 19:09 44.95768 22.74218 34934 ft 515 kts 143°
2026-04-20 19:10 44.90327 22.80812 34934 ft 515 kts 143°
2026-04-20 19:10 44.84887 22.87394 34935 ft 515 kts 143°
2026-04-20 19:11 44.79443 22.93970 34916 ft 516 kts 143°
2026-04-20 19:11 44.73989 23.00537 34925 ft 516 kts 143°
2026-04-20 19:12 44.68531 23.07101 34925 ft 516 kts 143°
2026-04-20 19:12 44.63068 23.13653 34936 ft 516 kts 143°
2026-04-20 19:13 44.57595 23.20187 34937 ft 516 kts 143°
2026-04-20 19:13 44.52128 23.26698 34930 ft 515 kts 143°
2026-04-20 19:14 44.46674 23.33184 34952 ft 514 kts 143°
2026-04-20 19:14 44.41229 23.39648 34955 ft 513 kts 143°
2026-04-20 19:15 44.35787 23.46082 34959 ft 512 kts 143°
2026-04-20 19:15 44.30342 23.52503 34947 ft 512 kts 143°
2026-04-20 19:16 44.24893 23.58916 34943 ft 513 kts 143°
2026-04-20 19:16 44.19436 23.65325 34943 ft 513 kts 143°
2026-04-20 19:17 44.14017 23.71681 34938 ft 513 kts 143°
2026-04-20 19:17 44.08552 23.78075 34934 ft 513 kts 143°
2026-04-20 19:18 44.03072 23.84447 34936 ft 513 kts 144°
2026-04-20 19:18 43.97589 23.90804 34930 ft 513 kts 143°
2026-04-20 19:19 43.92107 23.97151 34930 ft 514 kts 143°
2026-04-20 19:19 43.86618 24.03508 34934 ft 514 kts 143°
2026-04-20 19:20 43.81132 24.09852 34937 ft 514 kts 143°
2026-04-20 19:20 43.75639 24.16185 34938 ft 514 kts 143°
2026-04-20 19:21 43.70137 24.22487 34926 ft 514 kts 143°
2026-04-20 19:21 43.64763 24.29014 34938 ft 515 kts 139°
2026-04-20 19:22 43.59661 24.35973 34937 ft 516 kts 137°
2026-04-20 19:22 43.54606 24.42990 34952 ft 515 kts 137°
2026-04-20 19:23 43.49478 24.49864 34955 ft 514 kts 139°
2026-04-20 19:23 43.44301 24.56644 34943 ft 513 kts 139°
2026-04-20 19:24 43.39132 24.63414 34947 ft 513 kts 138°
2026-04-20 19:24 43.33985 24.70190 34960 ft 512 kts 138°
2026-04-20 19:25 43.28848 24.76960 34963 ft 512 kts 138°
2026-04-20 19:25 43.23701 24.83702 34971 ft 512 kts 138°
2026-04-20 19:26 43.18548 24.90437 34966 ft 512 kts 138°
2026-04-20 19:26 43.13394 24.97157 34950 ft 511 kts 138°
2026-04-20 19:27 43.08243 25.03861 34957 ft 511 kts 138°
2026-04-20 19:27 43.03097 25.10551 34960 ft 510 kts 138°
2026-04-20 19:28 42.97955 25.17211 34968 ft 509 kts 138°
2026-04-20 19:28 42.92818 25.23859 34961 ft 509 kts 138°
2026-04-20 19:29 42.87679 25.30495 34943 ft 508 kts 138°
2026-04-20 19:29 42.82537 25.37105 34943 ft 508 kts 138°
2026-04-20 19:30 42.77394 25.43703 34949 ft 507 kts 138°
2026-04-20 19:30 42.72255 25.50276 34943 ft 507 kts 138°
2026-04-20 19:31 42.67112 25.56840 34953 ft 507 kts 138°
2026-04-20 19:31 42.61974 25.63400 34940 ft 507 kts 138°
2026-04-20 19:32 42.56833 25.69954 34927 ft 507 kts 138°
2026-04-20 19:32 42.51687 25.76487 34929 ft 506 kts 138°
2026-04-20 19:33 42.47415 25.81899 34936 ft 506 kts 138°
2026-04-20 19:33 42.42270 25.88389 34943 ft 505 kts 138°
2026-04-20 19:34 42.37120 25.94866 34935 ft 505 kts 138°
2026-04-20 19:34 42.31973 26.01332 34921 ft 505 kts 137°
2026-04-20 19:35 42.26831 26.07789 34933 ft 505 kts 138°
2026-04-20 19:35 42.21680 26.14227 34938 ft 504 kts 138°
2026-04-20 19:36 42.16520 26.20630 34934 ft 504 kts 138°
2026-04-20 19:36 42.11363 26.27015 34940 ft 503 kts 138°
2026-04-20 19:37 42.06211 26.33391 34943 ft 503 kts 138°
2026-04-20 19:37 42.01064 26.39754 34934 ft 502 kts 138°
2026-04-20 19:38 41.95923 26.46097 34949 ft 501 kts 138°
2026-04-20 19:38 41.90780 26.52412 34948 ft 501 kts 138°
2026-04-20 19:39 41.85840 26.58979 34943 ft 500 kts 129°
2026-04-20 19:39 41.81413 26.66183 34948 ft 500 kts 129°
2026-04-20 19:40 41.76977 26.73353 34945 ft 500 kts 129°
2026-04-20 19:40 41.72528 26.80499 34941 ft 499 kts 129°
2026-04-20 19:41 41.68089 26.87629 34954 ft 499 kts 129°
2026-04-20 19:41 41.63656 26.94752 34958 ft 498 kts 129°
2026-04-20 19:42 41.59217 27.01861 34952 ft 498 kts 129°
2026-04-20 19:42 41.55109 27.09270 34949 ft 496 kts 117°
2026-04-20 19:43 41.52680 27.16178 34951 ft 494 kts 112°
2026-04-20 19:43 41.51229 27.21894 34951 ft 490 kts 101°
2026-04-20 19:43 41.50424 27.26311 34959 ft 490 kts 101°
2026-04-20 19:44 41.48835 27.35139 34965 ft 489 kts 101°
2026-04-20 19:44 41.47258 27.43957 34965 ft 489 kts 101°
2026-04-20 19:45 41.45669 27.52763 34967 ft 488 kts 101°
2026-04-20 19:45 41.44063 27.61552 34971 ft 488 kts 101°
2026-04-20 19:46 41.42440 27.70327 34969 ft 488 kts 101°
2026-04-20 19:46 41.40824 27.79095 34970 ft 487 kts 101°
2026-04-20 19:47 41.39216 27.87864 34838 ft 488 kts 101°
2026-04-20 19:47 41.38405 27.92247 34597 ft 487 kts 101°
2026-04-20 19:47 41.37590 27.96626 34360 ft 487 kts 101°
2026-04-20 19:47 41.36775 28.00997 34120 ft 487 kts 101°
2026-04-20 19:48 41.35957 28.05370 33875 ft 487 kts 101°
2026-04-20 19:48 41.35139 28.09742 33604 ft 487 kts 101°
2026-04-20 19:48 41.34317 28.14121 32722 ft 490 kts 101°
2026-04-20 19:48 41.33483 28.18559 31565 ft 498 kts 102°
2026-04-20 19:49 41.32636 28.23036 30562 ft 497 kts 102°
2026-04-20 19:49 41.31794 28.27465 29210 ft 491 kts 103°
2026-04-20 19:49 41.30957 28.31867 27963 ft 493 kts 103°
2026-04-20 19:49 41.30113 28.36309 26697 ft 498 kts 103°
2026-04-20 19:50 41.29259 28.40801 25359 ft 504 kts 104°
2026-04-20 19:50 41.28400 28.45323 24050 ft 501 kts 104°
2026-04-20 19:50 41.27557 28.49757 22727 ft 488 kts 104°
2026-04-20 19:50 41.26740 28.54045 21794 ft 468 kts 104°
2026-04-20 19:51 41.25939 28.58222 20910 ft 466 kts 104°
2026-04-20 19:51 41.25134 28.62390 20019 ft 465 kts 104°
2026-04-20 19:51 41.24333 28.66545 19141 ft 464 kts 104°
2026-04-20 19:51 41.23533 28.70694 18269 ft 461 kts 104°
2026-04-20 19:52 41.22745 28.74766 17371 ft 450 kts 104°
2026-04-20 19:52 41.21972 28.78749 16583 ft 441 kts 104°
2026-04-20 19:52 41.21213 28.82662 15822 ft 433 kts 104°
2026-04-20 19:52 41.20468 28.86503 15083 ft 427 kts 104°
2026-04-20 19:53 41.19729 28.90305 14366 ft 424 kts 104°
2026-04-20 19:53 41.18992 28.94082 13657 ft 421 kts 104°
2026-04-20 19:53 41.18256 28.97828 12935 ft 417 kts 104°
2026-04-20 19:53 41.17527 29.01524 12273 ft 411 kts 104°
2026-04-20 19:54 41.16809 29.05174 11621 ft 406 kts 104°
2026-04-20 19:54 41.16103 29.08759 11214 ft 395 kts 104°
2026-04-20 19:54 41.15426 29.12202 11088 ft 377 kts 104°
2026-04-20 19:54 41.14776 29.15490 10964 ft 361 kts 104°
2026-04-20 19:55 41.14160 29.18599 10847 ft 346 kts 104°
2026-04-20 19:55 41.13562 29.21625 10724 ft 333 kts 104°
2026-04-20 19:55 41.12983 29.24539 10601 ft 321 kts 104°
2026-04-20 19:55 41.12423 29.27347 10480 ft 310 kts 104°
2026-04-20 19:56 41.11877 29.30079 10245 ft 304 kts 104°
2026-04-20 19:56 41.11340 29.32765 10149 ft 300 kts 104°
2026-04-20 19:56 41.10805 29.35436 10027 ft 300 kts 104°
2026-04-20 19:56 41.10271 29.38114 9644 ft 304 kts 104°
2026-04-20 19:57 41.09732 29.40814 9292 ft 301 kts 104°
2026-04-20 19:57 41.09200 29.43470 8746 ft 297 kts 104°
2026-04-20 19:57 41.08670 29.46120 8141 ft 296 kts 104°
2026-04-20 19:57 41.08143 29.48742 7604 ft 295 kts 105°
2026-04-20 19:58 41.07613 29.51363 7225 ft 293 kts 105°
2026-04-20 19:58 41.07087 29.53961 6640 ft 290 kts 105°
2026-04-20 19:58 41.06570 29.56515 6138 ft 283 kts 106°
2026-04-20 19:58 41.05778 29.58782 6003 ft 265 kts 130°
2026-04-20 19:59 41.04376 29.60238 5770 ft 256 kts 160°
2026-04-20 19:59 41.02586 29.60597 5661 ft 266 kts 189°
2026-04-20 19:59 41.00932 29.59796 5458 ft 244 kts 218°
2026-04-20 19:59 40.99848 29.58211 5179 ft 226 kts 244°
2026-04-20 20:00 40.99169 29.56379 4863 ft 218 kts 246°
2026-04-20 20:00 40.98523 29.54588 4523 ft 213 kts 246°
2026-04-20 20:00 40.97890 29.52847 4194 ft 207 kts 246°
2026-04-20 20:00 40.97271 29.51151 3866 ft 203 kts 245°
2026-04-20 20:01 40.96665 29.49493 3575 ft 197 kts 245°
2026-04-20 20:01 40.96086 29.47910 3284 ft 187 kts 245°
2026-04-20 20:01 40.95529 29.46388 2969 ft 179 kts 245°
2026-04-20 20:01 40.95006 29.44959 2713 ft 167 kts 244°
2026-04-20 20:02 40.94526 29.43650 2477 ft 150 kts 244°
2026-04-20 20:02 40.94086 29.42449 2235 ft 141 kts 244°
2026-04-20 20:02 40.93664 29.41297 2019 ft 138 kts 243°
2026-04-20 20:02 40.93247 29.40160 1810 ft 137 kts 243°
2026-04-20 20:03 40.92830 29.39025 1593 ft 137 kts 243°
2026-04-20 20:03 40.92414 29.37887 1375 ft 138 kts 243°
2026-04-20 20:03 40.91993 29.36746 1157 ft 138 kts 243°
2026-04-20 20:03 40.91573 29.35601 948 ft 139 kts 243°
2026-04-20 20:04 40.91155 29.34470 742 ft 139 kts 243°
2026-04-20 20:04 40.90731 29.33323 512 ft 139 kts 244°
2026-04-20 20:04 40.90314 29.32179 329 ft 135 kts 244°
2026-04-20 20:04 40.89946 29.31175 311 ft 102 kts 245°
2026-04-20 20:05 40.89712 29.30539 311 ft 52 kts 244°
2026-04-20 20:05 40.89628 29.30231 310 ft 28 kts 263°
2026-04-20 20:05 40.89633 29.30034 309 ft 18 kts 275°
2026-04-20 20:05 40.89644 29.29936 309 ft 9 kts 299°
2026-04-20 20:06 40.89693 29.29928 309 ft 7 kts 31°
2026-04-20 20:06 40.89716 29.29971 307 ft 5 kts 62°
2026-04-20 20:06 40.89740 29.30034 308 ft 10 kts 65°
2026-04-20 20:06 40.89776 29.30137 310 ft 13 kts 65°
2026-04-20 20:07 40.89811 29.30236 309 ft 11 kts 65°
2026-04-20 20:07 40.89840 29.30318 310 ft 9 kts 65°
2026-04-20 20:07 40.89864 29.30386 310 ft 9 kts 65°
2026-04-20 20:07 40.89893 29.30462 311 ft 9 kts 60°
2026-04-20 20:08 40.89928 29.30547 311 ft 18 kts 63°
2026-04-20 20:08 40.89995 29.30727 310 ft 23 kts 64°
2026-04-20 20:08 40.90057 29.30897 311 ft 17 kts 58°
2026-04-20 20:08 40.90161 29.30907 309 ft 12 kts 333°
2026-04-20 20:09 40.90233 29.30878 311 ft 10 kts 17°
2026-04-20 20:09 40.90268 29.30935 311 ft 5 kts 37°
2026-04-20 20:09 40.90289 29.30937 311 ft 1 kts 38°
2026-04-20 20:09 40.90301 29.30968 311 ft 7 kts 40°
2026-04-20 20:10 40.90341 29.30958 311 ft 6 kts 335°
2026-04-20 20:10 40.90351 29.30951 311 ft 0 kts 334°